{"data":{"norad_id":66061,"intl_designator":"2025-235D","name":"STARLINK-35566","alt_names":[],"object_type":"PAYLOAD","status":"ACTIVE","operator":null,"country":"US","launch_date":"2025-10-19","launch_site_code":"AFETR","launch_vehicle":null,"mission":null,"orbit_class":"UNKNOWN","rcs_meters":null,"size_class":null,"mass_kg":null,"dimensions":null,"purposes":["comms"],"wikipedia_slug":null,"has_3d_model":false,"image_url":null,"decayed_at":null,"tle_current":{"epoch":"2026-05-24T17:04:16.970592Z","epoch_age_seconds":90181,"freshness":"FRESH","line1":"1 66061U 25235D   26144.71130753  .00019554  00000+0  67086-3 0  9993","line2":"2 66061  53.1583 251.9512 0001348  70.3587 289.7560 15.30186555 34561","mean_motion":15.30186555,"eccentricity":0.0001348,"inclination_deg":53.1583,"raan_deg":251.9512,"arg_perigee_deg":70.3587,"mean_anomaly_deg":289.756,"bstar":0.00067086,"rev_number":3456,"period_min":94.106172564037,"perigee_km":474.33137678933,"apogee_km":476.17905133024,"semimajor_km":6853.3922140598,"source":"CELESTRAK","updated_at":"2026-05-25T13:38:21.020394Z"}}}